Location: *
(51.1248°S, 108.4023°W)
Time: 05:17:41
(UTC+00:00)

USA 307 - Pass Details

Date: 15 June 2021
Orbit: 565 x 576 km, 54.0° (Epoch: 17 July)

Event Time Altitude Azimuth Distance (km) Brightness Sun altitude
Rises 23:45:29 0° 295° (WNW) 2,799 9.1 -5.2°
Reaches altitude 10° 23:47:44 10° 295° (WNW) 1,905 7.4 -5.5°
Maximum altitude 23:52:05 86° 22° (NNE) 595 3.0 -6.1°
Drops below altitude 10° 23:56:29 10° 111° (ESE) 1,920 4.9 -6.7°
Enters shadow 23:56:51 - 111° (ESE) 2,069 5.1 -6.7°
